Location: LDNL
(36.4545°S, 141.6685°E)
Time: 20:08:57
(UTC+10:00)

A-11 Canister half - Pass Details

Date: 06 February 2022
Orbit: 1527 x 1682 km, 47.3° (Epoch: 20 May)

Event Time Altitude Azimuth Distance (km) Brightness Sun altitude
Rises 04:25:08 0° 238° (WSW) 4,918 11.6 -25.9°
Reaches altitude 10° 04:28:21 10° 240° (WSW) 3,911 11.0 -25.4°
Maximum altitude 04:38:12 66° 318° (NW) 1,741 8.9 -24.0°
Drops below altitude 10° 04:47:40 10° 38° (NE) 3,765 11.0 -22.7°
Sets 04:50:43 0° 40° (NE) 4,726 11.6 -22.2°
